Find Starlink 37327

NORAD ID: 68737 Int'l Des: 2026-082 Owner: SPXS Country: US Constellation: starlink operational
LEOCIRCULARRETROGRADE

实时位置

正在加载3D地球...

关于 Starlink 37327

正在加载描述...

即将过境

Passes for default location (London). Set your location on the main map for personalized predictions.

高度历史

Loading altitude history...

两行轨道根数

1 68737C 26082J 26105.41090278 .00344990 00000+0 40464-3 0 1052
2 68737 97.2880 326.8328 0010723 270.5616 69.5879 16.08387614 18
Epoch: Apr 15, 2026 • Age: 19 hours

当前状态

高度 253.7 km
速度 7.75 km/s
星下点 -8.06°S, 44.6°E
发射日期 Apr 15, 2026
运行时间 1 days
类型 internet

技术详情

分类 Payload
质量 575.00 kg
干质量 530.00 kg
总质量 575.00 kg
长度 0.30 m
直径 4.10 m
跨度 29.00 m
形状 Box + pan
制造商 SPXS
平台类型 Starlink V2MO
阶段状态 In Orbit
所有者/国家 SPXS/US

Most Searched